Starlink 32413

operational
NORAD ID: 61590 Int'l Des: 2024-187 Owner: SPXS Country: US Constellation: starlink
LEOCIRCULAR

关于 Starlink 32413

正在加载描述...

实时位置

正在加载3D地球...

即将过境

高度历史

Altitude vs Time

uPlot chart will show altitude changes over time

两行轨道根数

1 61590U 24187S 25259.98190938 -.00001306 00000-0 -31987-4 0 9997
2 61590 53.1606 152.2023 0001291 80.8194 279.2953 15.30175598 52482
Epoch: Sep 16, 2025 • Age: 28 hours

当前状态

高度 477.2 km
速度 7.63 km/s
星下点 -5.98°S, 88.7°E
发射日期 Oct 18, 2024
运行时间 0.9 years
类型 internet

技术详情

分类 Payload
质量 730.00 kg
干质量 700.00 kg
总质量 730.00 kg
长度 0.30 m
直径 4.10 m
跨度 29.00 m
形状 Box + pan
制造商 SPXS
平台类型 Starlink V2M
阶段状态 In Orbit
所有者/国家 SPXS/US

大型星座

Loading constellations...